K5GHS-1 Weather Reports


Display with metric or nautical units.
time (UTC)temp
F
wind
direction
speed
MPH
gust
MPH
rain 1hr
in
rain 24hr
in
rain mn
in
humidity
%
barometer
mb
20260508101003 61 88 1.0 1.0 0.00 0.00 0.00 89 1011.6
20260508100501 61 85 0.0 0.0 0.00 0.00 0.00 89 1011.8
20260508095957 61 91 0.0 1.0 0.00 0.00 0.00 90 1011.6
20260508095455 61 80 0.0 1.0 0.00 0.00 0.00 91 1011.8
20260508094952 61 85 0.0 0.0 0.00 0.00 0.00 91 1011.6
20260508094448 61 91 0.0 1.0 0.00 0.00 0.00 91 1011.6
20260508093945 61 142 2.0 2.0 0.00 0.00 0.00 91 1011.8
20260508093442 60 89 1.0 1.0 0.00 0.00 0.00 91 1012.1
20260508092940 61 86 0.0 1.0 0.00 0.00 0.00 91 1011.9
20260508092438 61 84 0.0 0.0 0.00 0.00 0.00 91 1011.9
20260508091936 60 84 0.0 0.0 0.00 0.00 0.00 91 1012.1
20260508091432 61 72 0.0 0.0 0.00 0.00 0.00 90 1012.5
20260508090930 61 85 0.0 1.0 0.00 0.00 0.00 90 1012.0
20260508090429 61 88 0.0 1.0 0.00 0.00 0.00 89 1011.9
20260508085924 61 75 0.0 0.0 0.00 0.00 0.00 88 1012.6
20260508085421 61 75 0.0 0.0 0.00 0.00 0.00 87 1012.6
20260508084918 61 75 0.0 0.0 0.00 0.00 0.00 87 1012.5
20260508084414 61 75 0.0 0.0 0.00 0.00 0.00 87 1012.4
20260508083912 61 75 0.0 0.0 0.00 0.00 0.00 87 1012.8
20260508083409 62 84 0.0 0.0 0.00 0.00 0.00 86 1012.4
20260508082909 62 75 0.0 1.0 0.00 0.00 0.00 86 1012.0
20260508082407 62 112 2.0 2.0 0.00 0.00 0.00 85 1012.5
20260508081904 62 126 1.0 2.0 0.00 0.00 0.00 84 1012.1
20260508081401 63 97 1.0 1.0 0.00 0.00 0.00 82 1013.0
20260508080857 63 86 0.0 3.0 0.00 0.00 0.00 80 1012.5
20260508080356 63 95 1.0 2.0 0.00 0.00 0.00 80 1013.4
20260508075852 62 87 0.0 1.0 0.00 0.00 0.00 80 1013.9
20260508075349 62 78 0.0 0.0 0.00 0.00 0.00 81 1013.9
20260508074847 62 87 0.0 0.0 0.00 0.00 0.00 81 1013.7
20260508074343 62 88 0.0 0.0 0.00 0.00 0.00 81 1013.9
20260508073840 62 86 0.0 0.0 0.00 0.00 0.00 81 1013.4
20260508073338 62 86 0.0 0.0 0.00 0.00 0.00 81 1013.6
20260508072835 62 86 0.0 0.0 0.00 0.00 0.00 81 1013.5
20260508072331 62 86 0.0 0.0 0.00 0.00 0.00 81 1013.2
20260508071828 61 86 0.0 0.0 0.00 0.00 0.00 82 1013.2
20260508071327 61 86 0.0 0.0 0.00 0.00 0.00 82 1013.4
20260508070824 61 86 0.0 0.0 0.00 0.00 0.00 82 1013.4
20260508070322 61 86 0.0 0.0 0.00 0.00 0.00 82 1013.3
20260508065819 61 86 0.0 0.0 0.00 0.00 0.00 82 1013.5
20260508065317 61 86 0.0 0.0 0.00 0.00 0.00 82 1013.4
20260508064815 61 86 0.0 0.0 0.00 0.00 0.00 82 1013.8
20260508064313 61 86 0.0 0.0 0.00 0.00 0.00 81 1014.1
20260508063810 61 86 0.0 0.0 0.00 0.00 0.00 81 1014.3
20260508063308 61 86 0.0 0.0 0.00 0.00 0.00 81 1014.3
20260508062805 61 86 0.0 0.0 0.00 0.00 0.00 81 1014.1
20260508062306 61 86 0.0 0.0 0.00 0.00 0.00 80 1014.0
20260508061759 61 86 0.0 0.0 0.00 0.00 0.00 80 1014.0
20260508061256 61 86 0.0 0.0 0.00 0.00 0.00 80 1013.9
20260508060753 61 86 0.0 0.0 0.00 0.00 0.00 80 1013.8
20260508060251 61 86 0.0 0.0 0.00 0.00 0.00 80 1013.9
20260508055746 61 86 0.0 0.0 0.00 0.00 0.00 79 1014.0
20260508055243 61 86 0.0 0.0 0.00 0.00 0.00 79 1013.7
20260508054739 61 86 0.0 0.0 0.00 0.00 0.00 79 1014.0
20260508054238 61 86 0.0 0.0 0.00 0.00 0.00 79 1014.0
20260508053734 61 86 0.0 0.0 0.00 0.00 0.00 79 1014.0
20260508053231 61 86 0.0 0.0 0.00 0.00 0.00 79 1013.7
20260508052728 62 86 0.0 0.0 0.00 0.00 0.00 78 1014.0
20260508052226 62 86 0.0 0.0 0.00 0.00 0.00 78 1014.2
20260508051722 62 86 0.0 0.0 0.00 0.00 0.00 77 1014.1
20260508051217 62 86 0.0 0.0 0.00 0.00 0.00 77 1014.2
20260508050714 62 86 0.0 0.0 0.00 0.00 0.00 76 1014.1
20260508050212 62 86 0.0 0.0 0.00 0.00 0.00 76 1013.9
20260508045706 62 86 0.0 0.0 0.00 0.00 0.00 76 1014.0
20260508045205 62 86 0.0 0.0 0.00 0.00 0.00 77 1014.1
20260508044702 62 86 0.0 0.0 0.00 0.00 0.00 77 1014.2
20260508044158 62 86 0.0 0.0 0.00 0.00 0.00 76 1014.0
20260508043654 62 86 0.0 0.0 0.00 0.00 0.00 76 1014.0
20260508043152 62 86 0.0 0.0 0.00 0.00 0.00 76 1014.0
20260508042649 62 86 0.0 0.0 0.00 0.00 0.00 76 1014.0
20260508042146 62 86 0.0 0.0 0.00 0.00 0.00 76 1014.0
20260508041642 62 86 0.0 0.0 0.00 0.00 0.00 76 1013.9
20260508041139 62 86 0.0 0.0 0.00 0.00 0.00 76 1014.2
20260508040636 62 86 0.0 0.0 0.00 0.00 0.00 75 1013.9
20260508040133 62 86 0.0 0.0 0.00 0.00 0.00 74 1013.8
20260508035630 63 86 0.0 0.0 0.00 0.00 0.00 74 1014.2
20260508035128 63 86 0.0 0.0 0.00 0.00 0.00 74 1014.1
20260508034625 63 86 0.0 0.0 0.00 0.00 0.00 73 1013.8
20260508034121 64 86 0.0 0.0 0.00 0.00 0.00 73 1014.0
20260508033619 64 86 0.0 0.0 0.00 0.00 0.00 73 1014.0
20260508033117 64 86 0.0 0.0 0.00 0.00 0.00 73 1014.0
20260508032613 64 86 0.0 0.0 0.00 0.00 0.00 73 1013.9
20260508032111 64 86 0.0 0.0 0.00 0.00 0.00 72 1013.8
20260508031608 64 86 0.0 0.0 0.00 0.00 0.00 72 1013.8
20260508031103 64 86 0.0 0.0 0.00 0.00 0.00 72 1013.7
20260508030600 64 86 0.0 0.0 0.00 0.00 0.00 71 1013.7
20260508030058 65 82 0.0 1.0 0.00 0.00 0.00 71 1013.9
20260508025554 65 87 0.0 0.0 0.00 0.00 0.00 71 1013.7
20260508025051 65 86 0.0 0.0 0.00 0.00 0.00 71 1013.9
20260508024547 65 90 0.0 0.0 0.00 0.00 0.00 71 1013.9
20260508024044 65 90 0.0 1.0 0.00 0.00 0.00 70 1013.8
20260508023541 65 103 1.0 1.0 0.00 0.00 0.00 70 1013.6
20260508023038 65 106 1.0 1.0 0.00 0.00 0.00 69 1013.7
20260508022534 65 89 0.0 0.0 0.00 0.00 0.00 69 1013.6
20260508022031 66 89 0.0 1.0 0.00 0.00 0.00 68 1013.4
20260508021527 66 87 0.0 1.0 0.00 0.00 0.00 68 1013.6
20260508021023 66 85 0.0 1.0 0.00 0.00 0.00 67 1013.4
20260508020521 66 84 0.0 1.0 0.00 0.00 0.00 67 1013.4
20260508020018 66 86 1.0 1.0 0.00 0.00 0.00 67 1013.2
20260508015515 66 83 0.0 0.0 0.00 0.00 0.00 66 1013.2
20260508015012 66 87 1.0 1.0 0.00 0.00 0.00 66 1013.5
20260508014509 67 119 1.0 1.0 0.00 0.00 0.00 66 1013.4
20260508014005 67 89 0.0 1.0 0.00 0.00 0.00 66 1013.5
20260508013501 67 83 0.0 1.0 0.00 0.00 0.00 66 1013.4
20260508012959 67 82 0.0 1.0 0.00 0.00 0.00 66 1013.1
20260508012456 67 89 0.0 2.0 0.00 0.00 0.00 65 1013.1
20260508011953 67 130 1.0 3.0 0.00 0.00 0.00 65 1013.1
20260508011451 67 88 1.0 3.0 0.00 0.00 0.00 65 1013.2
20260508010948 68 84 0.0 1.0 0.00 0.00 0.00 65 1012.8
20260508010445 68 112 1.0 2.0 0.00 0.00 0.00 65 1013.0
20260508005942 68 85 1.0 6.0 0.00 0.00 0.00 65 1013.1
20260508005439 68 106 1.0 2.0 0.00 0.00 0.00 64 1013.0
20260508004935 68 129 1.0 2.0 0.00 0.00 0.00 64 1013.0
20260508004431 68 87 1.0 5.0 0.00 0.00 0.00 64 1013.0
20260508003928 69 94 3.0 5.0 0.00 0.00 0.00 64 1012.8
20260508003425 69 86 1.0 3.0 0.00 0.00 0.00 63 1013.0
20260508002922 69 106 2.0 5.0 0.00 0.00 0.00 63 1013.0
20260508002419 70 109 2.0 3.0 0.00 0.00 0.00 63 1013.0
20260508001915 70 82 0.0 2.0 0.00 0.00 0.00 62 1013.2
20260508001411 70 93 0.0 1.0 0.00 0.00 0.00 61 1013.2
20260508000908 71 94 2.0 2.0 0.00 0.00 0.00 59 1012.8
20260508000405 71 96 1.0 1.0 0.00 0.00 0.00 55 1013.1
20260507235901 71 90 0.0 1.0 0.00 0.00 0.00 56 1013.0
20260507235358 71 116 0.0 5.0 0.00 0.00 0.00 55 1013.1
20260507234855 72 96 1.0 3.0 0.00 0.00 0.00 54 1013.1
20260507234352 72 129 1.0 1.0 0.00 0.00 0.00 55 1012.8
20260507233848 72 108 0.0 1.0 0.00 0.00 0.00 54 1012.8
20260507233345 72 92 1.0 2.0 0.00 0.00 0.00 53 1013.0
20260507232844 72 88 0.0 1.0 0.00 0.00 0.00 53 1013.1
20260507232340 72 90 1.0 2.0 0.00 0.00 0.00 54 1013.3
20260507231837 72 89 0.0 1.0 0.00 0.00 0.00 54 1013.1
20260507231328 72 105 1.0 2.0 0.00 0.00 0.00 52 1013.3
20260507230824 72 86 1.0 2.0 0.00 0.00 0.00 52 1013.2
20260507230321 72 92 0.0 1.0 0.00 0.00 0.00 53 1013.1
20260507225822 72 86 0.0 2.0 0.00 0.00 0.00 52 1012.8
20260507225318 72 86 1.0 2.0 0.00 0.00 0.00 52 1013.1
20260507224814 72 92 2.0 3.0 0.00 0.00 0.00 51 1013.3
20260507224311 73 96 0.0 2.0 0.00 0.00 0.00 52 1013.4
20260507223807 73 82 1.0 3.0 0.00 0.00 0.00 52 1013.5
20260507223303 73 98 1.0 2.0 0.00 0.00 0.00 50 1013.3
20260507222800 74 91 1.0 3.0 0.00 0.00 0.00 50 1013.4
20260507222256 74 80 0.0 2.0 0.00 0.00 0.00 49 1013.3
20260507221754 75 89 0.0 2.0 0.00 0.00 0.00 48 1013.4
20260507221250 75 88 0.0 0.0 0.00 0.00 0.00 45 1013.2
20260507220746 76 70 0.0 0.0 0.00 0.00 0.00 45 1013.3
20260507220245 76 80 0.0 0.0 0.00 0.00 0.00 45 1013.3
20260507215740 76 74 0.0 0.0 0.00 0.00 0.00 45 1013.4
20260507215238 76 74 0.0 0.0 0.00 0.00 0.00 43 1013.7
20260507214735 76 75 0.0 0.0 0.00 0.00 0.00 45 1013.4
20260507214233 76 74 0.0 1.0 0.00 0.00 0.00 46 1013.6
20260507213728 76 83 0.0 0.0 0.00 0.00 0.00 45 1013.3
20260507213225 76 93 0.0 2.0 0.00 0.00 0.00 44 1013.6
20260507212721 77 92 0.0 1.0 0.00 0.00 0.00 42 1013.5
20260507212218 77 82 0.0 1.0 0.00 0.00 0.00 42 1013.5
20260507211715 77 81 0.0 1.0 0.00 0.00 0.00 43 1013.8
20260507211210 78 99 0.0 2.0 0.00 0.00 0.00 41 1013.8
20260507210708 78 64 0.0 1.0 0.00 0.00 0.00 43 1013.9
20260507210205 77 87 0.0 1.0 0.00 0.00 0.00 43 1013.8
20260507205701 78 81 0.0 0.0 0.00 0.00 0.00 40 1013.8
20260507205158 77 74 0.0 0.0 0.00 0.00 0.00 42 1013.7
20260507204654 77 110 0.0 1.0 0.00 0.00 0.00 42 1013.7
20260507204152 78 99 2.0 3.0 0.00 0.00 0.00 40 1013.8
20260507203650 79 78 0.0 0.0 0.00 0.00 0.00 40 1013.7
20260507203147 80 93 1.0 1.0 0.00 0.00 0.00 38 1014.2
20260507202642 79 77 1.0 2.0 0.00 0.00 0.00 40 1014.2
20260507202138 77 69 0.0 1.0 0.00 0.00 0.00 43 1014.3
20260507201634 78 113 2.0 3.0 0.00 0.00 0.00 40 1014.3
20260507201131 78 64 0.0 1.0 0.00 0.00 0.00 41 1014.2
20260507200627 78 67 0.0 1.0 0.00 0.00 0.00 43 1014.3
20260507200123 78 113 2.0 3.0 0.00 0.00 0.00 40 1014.4
20260507195620 78 71 1.0 2.0 0.00 0.00 0.00 41 1014.6
20260507195117 78 84 0.0 1.0 0.00 0.00 0.00 41 1014.6
20260507194614 78 93 0.0 1.0 0.00 0.00 0.00 42 1014.7
20260507194109 77 73 0.0 1.0 0.00 0.00 0.00 43 1014.8
20260507193607 76 114 1.0 2.0 0.00 0.00 0.00 44 1014.6
20260507193104 76 88 2.0 5.0 0.00 0.00 0.00 43 1014.7
20260507192600 78 79 0.0 1.0 0.00 0.00 0.00 42 1014.9
20260507192057 77 81 0.0 3.0 0.00 0.00 0.00 43 1014.7
20260507191552 77 96 1.0 1.0 0.00 0.00 0.00 41 1015.1
20260507191049 76 71 0.0 2.0 0.00 0.00 0.00 44 1015.3
20260507190547 76 73 0.0 3.0 0.00 0.00 0.00 44 1015.1
20260507190046 75 71 1.0 1.0 0.00 0.00 0.00 44 1015.2
20260507185543 75 112 3.0 5.0 0.00 0.00 0.00 44 1015.1
20260507185039 75 56 0.0 1.0 0.00 0.00 0.00 45 1015.3
20260507184538 75 76 0.0 1.0 0.00 0.00 0.00 47 1015.5
20260507184036 75 71 1.0 3.0 0.00 0.00 0.00 44 1015.4
20260507183531 75 74 0.0 1.0 0.00 0.00 0.00 45 1015.7
20260507183028 75 45 1.0 5.0 0.00 0.00 0.00 45 1015.7
20260507182525 74 94 0.0 1.0 0.00 0.00 0.00 46 1015.5
20260507182021 74 92 1.0 2.0 0.00 0.00 0.00 46 1015.7
20260507181518 73 75 1.0 3.0 0.00 0.00 0.00 45 1016.0
20260507181014 74 119 2.0 3.0 0.00 0.00 0.00 44 1016.0
20260507180510 74 71 0.0 2.0 0.00 0.00 0.00 46 1015.7
20260507180007 74 70 0.0 1.0 0.00 0.00 0.00 49 1016.1
20260507175504 73 72 0.0 2.0 0.00 0.00 0.00 46 1016.1
20260507175001 73 70 0.0 3.0 0.00 0.00 0.00 46 1016.0
20260507174458 74 65 1.0 1.0 0.00 0.00 0.00 45 1016.3
20260507173956 73 62 0.0 1.0 0.00 0.00 0.00 49 1016.3
20260507173452 72 73 0.0 0.0 0.00 0.00 0.00 49 1016.5
20260507172949 73 3 0.0 1.0 0.00 0.00 0.00 49 1016.8
20260507172446 73 72 0.0 2.0 0.00 0.00 0.00 51 1017.0
20260507171943 72 64 0.0 1.0 0.00 0.00 0.00 52 1017.0
20260507171438 72 86 3.0 3.0 0.00 0.00 0.00 48 1017.3
20260507170936 72 74 0.0 1.0 0.00 0.00 0.00 49 1017.4
20260507170432 71 106 0.0 1.0 0.00 0.00 0.00 51 1017.4
20260507165929 71 127 0.0 3.0 0.00 0.00 0.00 51 1017.5
20260507165425 71 79 0.0 3.0 0.00 0.00 0.00 51 1017.5
20260507164921 71 65 1.0 2.0 0.00 0.00 0.00 51 1017.3
20260507164418 71 82 0.0 1.0 0.00 0.00 0.00 51 1017.7
20260507163915 71 68 0.0 1.0 0.00 0.00 0.00 52 1017.5
20260507163412 71 69 0.0 1.0 0.00 0.00 0.00 51 1017.4
20260507162909 71 57 1.0 5.0 0.00 0.00 0.00 52 1017.5
20260507162404 71 68 0.0 1.0 0.00 0.00 0.00 52 1017.6
20260507161902 70 74 0.0 3.0 0.00 0.00 0.00 54 1017.6
20260507161358 70 71 0.0 1.0 0.00 0.00 0.00 54 1017.6
20260507160855 69 92 1.0 1.0 0.00 0.00 0.00 54 1017.6
20260507160350 69 63 0.0 1.0 0.00 0.00 0.00 56 1017.8
20260507155847 69 77 0.0 1.0 0.00 0.00 0.00 58 1017.8
20260507155342 69 69 0.0 1.0 0.00 0.00 0.00 57 1017.7
20260507154839 69 75 0.0 1.0 0.00 0.00 0.00 59 1017.9
20260507154337 68 75 0.0 1.0 0.00 0.00 0.00 59 1017.9
20260507153834 68 64 0.0 1.0 0.00 0.00 0.00 59 1018.1
20260507153330 68 65 1.0 2.0 0.00 0.00 0.00 59 1017.9
20260507152827 68 71 0.0 0.0 0.00 0.00 0.00 60 1017.9
20260507152323 67 68 0.0 1.0 0.00 0.00 0.00 61 1018.3
20260507151819 68 69 0.0 0.0 0.00 0.00 0.00 61 1018.1
20260507151316 66 87 1.0 2.0 0.00 0.00 0.00 61 1018.1
20260507150813 66 75 0.0 1.0 0.00 0.00 0.00 62 1018.2
20260507150309 66 75 0.0 2.0 0.00 0.00 0.00 63 1018.2
20260507145805 65 90 0.0 1.0 0.00 0.00 0.00 62 1018.2
20260507145306 65 83 1.0 1.0 0.00 0.00 0.00 64 1018.2
20260507144759 65 72 0.0 1.0 0.00 0.00 0.00 64 1018.3
20260507144256 66 70 0.0 2.0 0.00 0.00 0.00 63 1018.4
20260507143753 66 69 2.0 2.0 0.00 0.00 0.00 64 1018.3
20260507143250 66 70 0.0 1.0 0.00 0.00 0.00 66 1018.3
20260507142746 65 70 0.0 0.0 0.00 0.00 0.00 70 1018.5
20260507142243 64 70 0.0 2.0 0.00 0.00 0.00 69 1018.4
20260507141739 63 71 0.0 1.0 0.00 0.00 0.00 71 1018.5
20260507141236 63 74 0.0 1.0 0.00 0.00 0.00 72 1018.8
20260507140732 62 73 0.0 0.0 0.00 0.00 0.00 74 1018.9
20260507140230 61 58 0.0 1.0 0.00 0.00 0.00 76 1018.7
20260507135727 60 72 0.0 1.0 0.00 0.00 0.00 79 1018.8
20260507135224 59 68 0.0 0.0 0.00 0.00 0.00 83 1018.8
20260507134720 58 71 0.0 0.0 0.00 0.00 0.00 86 1018.6
20260507134216 57 72 0.0 0.0 0.00 0.00 0.00 88 1018.9
20260507133712 57 70 0.0 1.0 0.00 0.00 0.00 91 1018.7
20260507133210 57 74 0.0 1.0 0.00 0.00 0.00 93 1018.7
20260507132707 56 73 0.0 0.0 0.00 0.00 0.00 94 1018.8
20260507132203 55 75 0.0 0.0 0.00 0.00 0.00 94 1018.9
20260507131700 54 71 0.0 0.0 0.00 0.00 0.00 95 1018.7
20260507131158 54 74 0.0 0.0 0.00 0.00 0.00 95 1018.7
20260507130654 54 74 0.0 0.0 0.00 0.00 0.00 95 1018.7
20260507130152 53 75 0.0 0.0 0.00 0.00 0.00 95 1018.7
20260507125651 53 72 0.0 1.0 0.00 0.00 0.00 95 1018.7
20260507125148 53 74 0.0 0.0 0.00 0.00 0.00 95 1018.6
20260507124643 52 73 0.0 0.0 0.00 0.00 0.00 96 1018.4
20260507124142 52 80 0.0 0.0 0.00 0.00 0.00 96 1018.3
20260507123640 52 76 0.0 0.0 0.00 0.00 0.00 96 1018.4
20260507123137 51 80 0.0 0.0 0.00 0.00 0.00 96 1018.2
20260507122632 51 78 0.0 0.0 0.00 0.00 0.00 96 1018.5
20260507122128 51 78 0.0 0.0 0.00 0.00 0.00 95 1018.5
20260507121624 50 78 0.0 0.0 0.00 0.00 0.00 95 1018.4
20260507121120 50 78 0.0 0.0 0.00 0.00 0.00 95 1018.3
20260507120616 50 78 0.0 0.0 0.00 0.00 0.00 95 1018.2
20260507120113 50 78 0.0 0.0 0.00 0.00 0.00 95 1018.1
20260507115610 50 78 0.0 0.0 0.00 0.00 0.00 95 1017.8
20260507115105 50 78 0.0 0.0 0.00 0.00 0.00 95 1017.7
20260507114601 50 78 0.0 0.0 0.00 0.00 0.00 95 1018.1
20260507114058 50 78 0.0 0.0 0.00 0.00 0.00 95 1017.6
20260507113555 50 78 0.0 0.0 0.00 0.00 0.00 95 1017.6
20260507113053 50 78 0.0 0.0 0.00 0.00 0.00 95 1017.6
20260507112551 50 78 0.0 0.0 0.00 0.00 0.00 95 1017.4
20260507112047 50 78 0.0 0.0 0.00 0.00 0.00 95 1017.3
20260507111544 50 78 0.0 0.0 0.00 0.00 0.00 95 1017.1
20260507111041 50 79 0.0 0.0 0.00 0.00 0.00 95 1017.1
20260507110537 50 77 0.0 0.0 0.00 0.00 0.00 94 1017.1
20260507110034 50 77 0.0 0.0 0.00 0.00 0.00 94 1017.2
20260507105531 50 77 0.0 0.0 0.00 0.00 0.00 94 1017.2
20260507105027 50 77 0.0 0.0 0.00 0.00 0.00 94 1017.2
20260507104524 50 77 0.0 0.0 0.00 0.00 0.00 94 1017.0
20260507104021 50 77 0.0 0.0 0.00 0.00 0.00 94 1016.8
20260507103517 50 77 0.0 0.0 0.00 0.00 0.00 94 1016.8
20260507103014 50 77 0.0 0.0 0.00 0.00 0.00 94 1016.9
20260507102510 50 77 0.0 0.0 0.00 0.00 0.00 94 1016.5
20260507102007 50 77 0.0 0.0 0.00 0.00 0.00 94 1016.6
20260507101502 50 77 0.0 0.0 0.00 0.00 0.00 94 1016.4